When you browse on this site, cookies collect data to enhance your experience and personalize the content and advertising you see.
Visit our Privacy Policy to learn more. By continuing to use the site, you agree to this use of cookies and data.
  • In Sweden
  • List of Countries
  • For 7 days
  • Water Temperature
  • Weather Map
  • Weather Widgets
  • user-avatar
    Login

    Hourly Weather Biskira

    Today, 21 September, Saturday

    Time Temperature Precipitation Wind Pressure Humidity
    00:00 +35°C° 0 mm 4 mps 752 mmHg 22%
    01:00 +34°C° 0 mm 3 mps 752 mmHg 24%
    02:00 +33°C° 0 mm 3 mps 752 mmHg 25%
    03:00 +32°C° 0 mm 2 mps 752 mmHg 27%
    04:00 +31°C° 0 mm 3 mps 752 mmHg 27%
    05:00 +32°C° 0 mm 4 mps 752 mmHg 27%
    06:00 +32°C° 0 mm 5 mps 753 mmHg 27%
    07:00 +34°C° 0 mm 6 mps 753 mmHg 28%
    08:00 +35°C° 0 mm 7 mps 753 mmHg 28%
    09:00 +37°C° 0 mm 8 mps 754 mmHg 29%
    10:00 +38°C° 0 mm 7 mps 753 mmHg 27%
    11:00 +39°C° 0 mm 6 mps 753 mmHg 25%
    12:00 +40°C° 0 mm 6 mps 753 mmHg 23%
    13:00 +40°C° 0 mm 6 mps 752 mmHg 21%
    14:00 +41°C° 0 mm 6 mps 752 mmHg 19%
    15:00 +42°C° 0 mm 6 mps 751 mmHg 17%
    16:00 +41°C° 0 mm 6 mps 751 mmHg 19%
    17:00 +40°C° 0 mm 6 mps 751 mmHg 21%
    18:00 +39°C° 0 mm 6 mps 751 mmHg 23%
    19:00 +38°C° 0 mm 6 mps 751 mmHg 23%
    20:00 +38°C° 0 mm 6 mps 751 mmHg 23%
    21:00 +38°C° 0 mm 7 mps 752 mmHg 24%
    22:00 +36°C° 0 mm 7 mps 752 mmHg 29%
    23:00 +35°C° 0 mm 8 mps 752 mmHg 34%

    Tomorrow, 22 September, Sunday

    Time Temperature Precipitation Wind Pressure Humidity
    00:00 +34°C° 0 mm 9 mps 752 mmHg 39%
    01:00 +34°C° 0 mm 8 mps 751 mmHg 42%
    02:00 +33°C° 0 mm 7 mps 751 mmHg 45%
    03:00 +32°C° 0 mm 6 mps 751 mmHg 49%
    04:00 +32°C° 0 mm 7 mps 752 mmHg 48%
    05:00 +32°C° 0 mm 7 mps 752 mmHg 47%
    06:00 +32°C° 0 mm 7 mps 752 mmHg 46%
    07:00 +33°C° 0 mm 7 mps 752 mmHg 43%
    08:00 +34°C° 0 mm 7 mps 753 mmHg 40%
    09:00 +35°C° 0 mm 7 mps 753 mmHg 37%
    10:00 +36°C° 0 mm 7 mps 752 mmHg 34%
    11:00 +38°C° 0 mm 6 mps 752 mmHg 31%
    12:00 +39°C° 0 mm 6 mps 752 mmHg 28%
    13:00 +39°C° 0 mm 6 mps 751 mmHg 27%
    14:00 +40°C° 0 mm 5 mps 751 mmHg 25%
    15:00 +40°C° 0 mm 4 mps 750 mmHg 24%
    16:00 +40°C° 0 mm 4 mps 751 mmHg 24%
    17:00 +38°C° 0 mm 4 mps 751 mmHg 25%
    18:00 +38°C° 0 mm 4 mps 751 mmHg 26%
    19:00 +37°C° 0 mm 4 mps 751 mmHg 26%
    20:00 +37°C° 0 mm 3 mps 752 mmHg 27%
    21:00 +36°C° 0 mm 3 mps 752 mmHg 27%
    22:00 +36°C° 0 mm 4 mps 752 mmHg 29%
    23:00 +35°C° 0 mm 5 mps 752 mmHg 30%

    Day after tomorrow, 23 September, Monday

    Time Temperature Precipitation Wind Pressure Humidity
    00:00 +35°C° 0 mm 7 mps 752 mmHg 31%
    01:00 +34°C° 0 mm 5 mps 752 mmHg 35%
    02:00 +34°C° 0 mm 4 mps 752 mmHg 39%
    03:00 +33°C° 0 mm 3 mps 752 mmHg 42%
    04:00 +33°C° 0 mm 4 mps 752 mmHg 41%
    05:00 +33°C° 0 mm 5 mps 752 mmHg 41%
    06:00 +33°C° 0 mm 6 mps 752 mmHg 40%
    07:00 +34°C° 0 mm 7 mps 752 mmHg 37%
    08:00 +35°C° 0 mm 7 mps 753 mmHg 34%
    09:00 +36°C° 0 mm 7 mps 753 mmHg 31%
    10:00 +38°C° 0 mm 6 mps 753 mmHg 27%
    11:00 +39°C° 0 mm 5 mps 752 mmHg 24%
    12:00 +40°C° 0 mm 4 mps 752 mmHg 20%
    13:00 +41°C° 0 mm 4 mps 752 mmHg 19%
    14:00 +41°C° 0 mm 4 mps 751 mmHg 17%
    15:00 +42°C° 0 mm 4 mps 751 mmHg 15%
    16:00 +41°C° 0 mm 4 mps 751 mmHg 17%
    17:00 +40°C° 0 mm 4 mps 751 mmHg 18%
    18:00 +38°C° 0 mm 4 mps 751 mmHg 19%
    19:00 +37°C° 0 mm 4 mps 752 mmHg 20%
    20:00 +36°C° 0 mm 3 mps 752 mmHg 21%
    21:00 +36°C° 0 mm 3 mps 752 mmHg 22%
    22:00 +35°C° 0 mm 2 mps 752 mmHg 24%
    23:00 +33°C° 0 mm 1 mps 752 mmHg 25%

    24 September, Tuesday

    Time Temperature Precipitation Wind Pressure Humidity
    00:00 +30°C° 0 mm 0 mps 752 mmHg 27%
    01:00 +32°C° 0 mm 1 mps 752 mmHg 27%
    02:00 +32°C° 0 mm 1 mps 752 mmHg 27%
    03:00 +31°C° 0 mm 1 mps 752 mmHg 27%
    04:00 +31°C° 0 mm 1 mps 752 mmHg 29%
    05:00 +31°C° 0 mm 1 mps 752 mmHg 30%
    06:00 +30°C° 0 mm 1 mps 752 mmHg 32%
    07:00 +32°C° 0 mm 1 mps 752 mmHg 29%
    08:00 +34°C° 0 mm 1 mps 752 mmHg 25%
    09:00 +37°C° 0 mm 2 mps 753 mmHg 21%
    10:00 +38°C° 0 mm 2 mps 753 mmHg 20%
    11:00 +39°C° 0 mm 2 mps 752 mmHg 18%
    12:00 +40°C° 0 mm 2 mps 752 mmHg 16%
    13:00 +40°C° 0 mm 2 mps 752 mmHg 17%
    14:00 +40°C° 0 mm 3 mps 751 mmHg 18%
    15:00 +40°C° 0 mm 3 mps 751 mmHg 19%
    16:00 +40°C° 0 mm 3 mps 751 mmHg 21%
    17:00 +39°C° 0 mm 3 mps 751 mmHg 23%
    18:00 +38°C° 0 mm 3 mps 751 mmHg 25%
    19:00 +37°C° 0 mm 3 mps 751 mmHg 26%
    20:00 +37°C° 0 mm 3 mps 751 mmHg 27%
    21:00 +36°C° 0 mm 3 mps 752 mmHg 28%
    22:00 +36°C° 0 mm 2 mps 751 mmHg 28%
    23:00 +35°C° 0 mm 2 mps 751 mmHg 28%

    25 September, Wednesday

    Time Temperature Precipitation Wind Pressure Humidity
    00:00 +35°C° 0 mm 2 mps 751 mmHg 29%
    01:00 +34°C° 0 mm 2 mps 751 mmHg 29%
    02:00 +34°C° 0 mm 2 mps 751 mmHg 29%
    03:00 +34°C° 0 mm 2 mps 750 mmHg 29%
    04:00 +32°C° 0 mm 2 mps 751 mmHg 34%
    05:00 +31°C° 0 mm 2 mps 751 mmHg 38%
    06:00 +30°C° 0 mm 3 mps 751 mmHg 43%
    07:00 +31°C° 0 mm 3 mps 751 mmHg 41%
    08:00 +34°C° 0 mm 3 mps 752 mmHg 39%
    09:00 +35°C° 0 mm 3 mps 752 mmHg 37%
    10:00 +36°C° 0 mm 3 mps 752 mmHg 34%
    11:00 +37°C° 0 mm 3 mps 752 mmHg 32%
    12:00 +38°C° 0 mm 2 mps 752 mmHg 29%
    13:00 +38°C° 0 mm 2 mps 751 mmHg 28%
    14:00 +37°C° 0 mm 1 mps 751 mmHg 26%
    15:00 +39°C° 0 mm 1 mps 750 mmHg 25%
    16:00 +37°C° 0 mm 1 mps 750 mmHg 27%
    17:00 +37°C° 0 mm 1 mps 750 mmHg 28%
    18:00 +36°C° 0 mm 1 mps 751 mmHg 29%
    19:00 +36°C° 0 mm 1 mps 751 mmHg 29%
    20:00 +35°C° 0 mm 1 mps 751 mmHg 29%
    21:00 +36°C° 0 mm 2 mps 752 mmHg 29%
    22:00 +35°C° 0 mm 2 mps 752 mmHg 29%
    23:00 +34°C° 0 mm 1 mps 752 mmHg 29%

    26 September, Thursday

    Time Temperature Precipitation Wind Pressure Humidity
    00:00 +33°C° 0 mm 1 mps 752 mmHg 29%
    01:00 +33°C° 0 mm 1 mps 752 mmHg 29%
    02:00 +32°C° 0 mm 1 mps 752 mmHg 29%
    03:00 +32°C° 0 mm 1 mps 752 mmHg 29%
    04:00 +32°C° 0 mm 1 mps 752 mmHg 29%
    05:00 +32°C° 0 mm 2 mps 752 mmHg 29%
    06:00 +31°C° 0 mm 2 mps 752 mmHg 30%
    07:00 +34°C° 0 mm 2 mps 752 mmHg 30%
    08:00 +35°C° 0 mm 2 mps 753 mmHg 30%
    09:00 +36°C° 0 mm 2 mps 753 mmHg 30%
    10:00 +37°C° 0 mm 2 mps 753 mmHg 27%
    11:00 +38°C° 0 mm 2 mps 753 mmHg 25%
    12:00 +39°C° 0 mm 1 mps 753 mmHg 22%
    13:00 +39°C° 0 mm 1 mps 752 mmHg 21%
    14:00 +40°C° 0 mm 1 mps 752 mmHg 20%
    15:00 +40°C° 0 mm 1 mps 751 mmHg 19%
    16:00 +40°C° 0 mm 1 mps 751 mmHg 20%
    17:00 +39°C° 0 mm 1 mps 751 mmHg 22%
    18:00 +37°C° 0 mm 1 mps 752 mmHg 24%
    19:00 +36°C° 0 mm 1 mps 752 mmHg 25%
    20:00 +36°C° 0 mm 1 mps 752 mmHg 26%
    21:00 +35°C° 0 mm 1 mps 753 mmHg 27%
    22:00 +34°C° 0 mm 1 mps 752 mmHg 28%
    23:00 +34°C° 0 mm 1 mps 752 mmHg 30%
    Show more